• In Italy
  • List of Countries
  • For 7 days
  • Water Temperature
  • Satellite Maps
  • Weather Map
  • Weather Widgets
  • user-avatar
    Login

    Hourly Weather Argelaguer

    Today, 22 November, Wednesday

    Time Temperature Precipitation Wind Pressure Humidity
    00:00 +9°C° 0 mm 2 mps 716 mmHg 59%
    01:00 +9°C° 0 mm 2 mps 715 mmHg 59%
    02:00 +9°C° 0 mm 2 mps 715 mmHg 58%
    03:00 +9°C° 0 mm 2 mps 715 mmHg 58%
    04:00 +8°C° 0 mm 2 mps 714 mmHg 58%
    05:00 +8°C° 0 mm 2 mps 714 mmHg 57%
    06:00 +8°C° 0 mm 2 mps 714 mmHg 57%
    07:00 +9°C° 0 mm 2 mps 714 mmHg 53%
    08:00 +12°C° 0 mm 2 mps 714 mmHg 49%
    09:00 +13°C° 0 mm 2 mps 714 mmHg 45%
    10:00 +15°C° 0 mm 2 mps 714 mmHg 42%
    11:00 +16°C° 0 mm 3 mps 714 mmHg 40%
    12:00 +18°C° 0 mm 4 mps 714 mmHg 37%
    13:00 +18°C° 0 mm 4 mps 714 mmHg 40%
    14:00 +17°C° 0 mm 4 mps 713 mmHg 43%
    15:00 +17°C° 0 mm 4 mps 713 mmHg 46%
    16:00 +14°C° 0 mm 4 mps 713 mmHg 54%
    17:00 +12°C° 0 mm 4 mps 713 mmHg 61%
    18:00 +10°C° 0 mm 4 mps 713 mmHg 68%
    19:00 +10°C° 0 mm 4 mps 713 mmHg 67%
    20:00 +10°C° 0 mm 4 mps 713 mmHg 66%
    21:00 +9°C° 0 mm 3 mps 713 mmHg 65%
    22:00 +9°C° 0 mm 3 mps 713 mmHg 63%
    23:00 +9°C° 0 mm 3 mps 713 mmHg 62%

    Tomorrow, 23 November, Thursday

    Time Temperature Precipitation Wind Pressure Humidity
    00:00 +8°C° 0 mm 3 mps 713 mmHg 60%
    01:00 +8°C° 0 mm 3 mps 713 mmHg 57%
    02:00 +8°C° 0 mm 3 mps 713 mmHg 54%
    03:00 +8°C° 0 mm 2 mps 713 mmHg 51%
    04:00 +8°C° 0 mm 2 mps 713 mmHg 49%
    05:00 +8°C° 0 mm 2 mps 713 mmHg 46%
    06:00 +8°C° 0 mm 2 mps 713 mmHg 44%
    07:00 +10°C° 0 mm 1 mps 714 mmHg 43%
    08:00 +12°C° 0 mm 1 mps 714 mmHg 42%
    09:00 +13°C° 0 mm 1 mps 715 mmHg 41%
    10:00 +15°C° 0 mm 1 mps 715 mmHg 40%
    11:00 +16°C° 0 mm 1 mps 715 mmHg 39%
    12:00 +19°C° 0 mm 1 mps 715 mmHg 38%
    13:00 +18°C° 0 mm 1 mps 715 mmHg 41%
    14:00 +18°C° 0 mm 1 mps 715 mmHg 45%
    15:00 +16°C° 0 mm 1 mps 715 mmHg 49%
    16:00 +14°C° 0 mm 1 mps 716 mmHg 55%
    17:00 +12°C° 0 mm 1 mps 716 mmHg 61%
    18:00 +11°C° 0 mm 1 mps 716 mmHg 68%
    19:00 +10°C° 0 mm 1 mps 716 mmHg 66%
    20:00 +10°C° 0 mm 1 mps 716 mmHg 65%
    21:00 +10°C° 0 mm 1 mps 716 mmHg 64%
    22:00 +10°C° 0 mm 1 mps 716 mmHg 63%
    23:00 +10°C° 0 mm 1 mps 716 mmHg 63%

    Day after tomorrow, 24 November, Friday

    Time Temperature Precipitation Wind Pressure Humidity
    00:00 +10°C° 0 mm 1 mps 716 mmHg 63%
    01:00 +10°C° 0 mm 1 mps 716 mmHg 62%
    02:00 +10°C° 0 mm 1 mps 716 mmHg 62%
    03:00 +9°C° 0 mm 2 mps 715 mmHg 61%
    04:00 +9°C° 0 mm 2 mps 715 mmHg 61%
    05:00 +9°C° 0 mm 2 mps 715 mmHg 60%
    06:00 +10°C° 0 mm 2 mps 715 mmHg 59%
    07:00 +12°C° 0 mm 2 mps 716 mmHg 55%
    08:00 +12°C° 0 mm 3 mps 716 mmHg 52%
    09:00 +14°C° 0 mm 3 mps 716 mmHg 48%
    10:00 +14°C° 0 mm 3 mps 716 mmHg 48%
    11:00 +16°C° 0 mm 3 mps 716 mmHg 47%
    12:00 +17°C° 0 mm 3 mps 716 mmHg 47%
    13:00 +17°C° 0 mm 3 mps 716 mmHg 48%
    14:00 +17°C° 0 mm 4 mps 715 mmHg 49%
    15:00 +17°C° 0 mm 4 mps 715 mmHg 50%
    16:00 +15°C° 0 mm 4 mps 715 mmHg 55%
    17:00 +13°C° 0 mm 4 mps 715 mmHg 60%
    18:00 +12°C° 0 mm 3 mps 715 mmHg 65%
    19:00 +12°C° 0 mm 3 mps 715 mmHg 66%
    20:00 +11°C° 0 mm 4 mps 715 mmHg 68%
    21:00 +11°C° 0 mm 4 mps 715 mmHg 69%
    22:00 +11°C° 0 mm 3 mps 715 mmHg 69%
    23:00 +11°C° 0 mm 3 mps 714 mmHg 68%

    25 November, Saturday

    Time Temperature Precipitation Wind Pressure Humidity
    00:00 +11°C° 0 mm 3 mps 714 mmHg 68%
    01:00 +10°C° 0 mm 3 mps 714 mmHg 66%
    02:00 +10°C° 0 mm 3 mps 714 mmHg 65%
    03:00 +10°C° 0 mm 3 mps 713 mmHg 63%
    04:00 +10°C° 0 mm 3 mps 714 mmHg 62%
    05:00 +10°C° 0 mm 4 mps 714 mmHg 61%
    06:00 +11°C° 0 mm 4 mps 714 mmHg 59%
    07:00 +11°C° 0 mm 4 mps 715 mmHg 60%
    08:00 +12°C° 0 mm 4 mps 715 mmHg 61%
    09:00 +12°C° 0 mm 3 mps 716 mmHg 61%
    10:00 +13°C° 0 mm 4 mps 716 mmHg 59%
    11:00 +13°C° 0 mm 4 mps 717 mmHg 57%
    12:00 +14°C° 0 mm 4 mps 717 mmHg 55%
    13:00 +14°C° 0 mm 4 mps 717 mmHg 57%
    14:00 +13°C° 0 mm 5 mps 717 mmHg 59%
    15:00 +12°C° 0 mm 5 mps 717 mmHg 62%
    16:00 +10°C° 0.1 mm 5 mps 718 mmHg 66%
    17:00 +11°C° 0.1 mm 4 mps 718 mmHg 70%
    18:00 +10°C° 0.1 mm 4 mps 718 mmHg 75%
    19:00 +8°C° 0.1 mm 4 mps 719 mmHg 76%
    20:00 +8°C° 0.1 mm 4 mps 719 mmHg 77%
    21:00 +8°C° 0.1 mm 4 mps 719 mmHg 78%
    22:00 +7°C° 0 mm 4 mps 719 mmHg 77%
    23:00 +8°C° 0 mm 3 mps 719 mmHg 77%

    26 November, Sunday

    Time Temperature Precipitation Wind Pressure Humidity
    00:00 +8°C° 0 mm 3 mps 719 mmHg 76%
    01:00 +8°C° 0 mm 3 mps 719 mmHg 76%
    02:00 +6°C° 0 mm 4 mps 719 mmHg 76%
    03:00 +6°C° 0 mm 4 mps 719 mmHg 76%
    04:00 +6°C° 0 mm 4 mps 719 mmHg 75%
    05:00 +5°C° 0 mm 4 mps 720 mmHg 75%
    06:00 +5°C° 0 mm 4 mps 720 mmHg 75%
    07:00 +5°C° 0 mm 5 mps 720 mmHg 72%
    08:00 +6°C° 0 mm 5 mps 721 mmHg 70%
    09:00 +6°C° 0 mm 5 mps 721 mmHg 67%
    10:00 +7°C° 0 mm 5 mps 721 mmHg 62%
    11:00 +8°C° 0 mm 5 mps 721 mmHg 57%
    12:00 +8°C° 0 mm 4 mps 721 mmHg 52%
    13:00 +8°C° 0 mm 4 mps 721 mmHg 52%
    14:00 +8°C° 0 mm 4 mps 721 mmHg 53%
    15:00 +8°C° 0 mm 4 mps 721 mmHg 53%
    16:00 +7°C° 0 mm 4 mps 721 mmHg 59%
    17:00 +6°C° 0 mm 4 mps 721 mmHg 66%
    18:00 +5°C° 0 mm 4 mps 722 mmHg 72%
    19:00 +4°C° 0 mm 3 mps 722 mmHg 72%
    20:00 +4°C° 0 mm 3 mps 722 mmHg 72%
    21:00 +4°C° 0 mm 3 mps 723 mmHg 73%
    22:00 +3°C° 0 mm 3 mps 723 mmHg 72%
    23:00 +3°C° 0 mm 3 mps 722 mmHg 72%

    27 November, Monday

    Time Temperature Precipitation Wind Pressure Humidity
    00:00 +3°C° 0 mm 3 mps 722 mmHg 71%
    01:00 +3°C° 0 mm 3 mps 722 mmHg 71%
    02:00 +2°C° 0 mm 3 mps 722 mmHg 71%
    03:00 +2°C° 0 mm 3 mps 722 mmHg 71%
    04:00 +2°C° 0 mm 3 mps 722 mmHg 70%
    05:00 +2°C° 0 mm 3 mps 722 mmHg 69%
    06:00 +3°C° 0 mm 2 mps 721 mmHg 68%
    07:00 +4°C° 0 mm 2 mps 722 mmHg 63%
    08:00 +6°C° 0 mm 2 mps 722 mmHg 58%
    09:00 +8°C° 0 mm 1 mps 722 mmHg 53%
    10:00 +9°C° 0 mm 1 mps 721 mmHg 50%
    11:00 +9°C° 0 mm 2 mps 721 mmHg 47%
    12:00 +10°C° 0 mm 2 mps 720 mmHg 45%
    13:00 +10°C° 0 mm 2 mps 720 mmHg 47%
    14:00 +10°C° 0 mm 2 mps 719 mmHg 49%
    15:00 +10°C° 0 mm 3 mps 718 mmHg 51%
    16:00 +8°C° 0 mm 3 mps 718 mmHg 58%
    17:00 +7°C° 0 mm 3 mps 717 mmHg 65%
    18:00 +4°C° 0 mm 3 mps 717 mmHg 72%
    19:00 +5°C° 0 mm 3 mps 717 mmHg 70%
    20:00 +6°C° 0 mm 2 mps 716 mmHg 68%
    21:00 +6°C° 0 mm 2 mps 716 mmHg 66%
    22:00 +6°C° 0 mm 2 mps 716 mmHg 68%
    23:00 +6°C° 0 mm 2 mps 715 mmHg 69%
    Show more